Simultaneous Nadir Overpasses (SNOs) Predictions

Prediction of SNOs between GOES-14 and AQUA Satellite Orbit:

Table of predicted SNOs for the next 14.0 days since TLE Epoch: 2/3/2024
Index Date Time (GOES-14) GOES-14 Lat,Lon AQUA Lat,Lon Distance(km) Time Diff (sec)
1 02/03/2024 21:14:33 0.01,-108.50 0.12,-107.95 62.46 80
2 02/05/2024 20:59:02 0.01,-108.48 0.91,-104.15 492.16 80
3 02/06/2024 09:19:26 -0.00,-108.47 0.13,-109.09 71.21 80
4 02/08/2024 09:01:14 -0.00,-108.45 -0.65,-105.29 358.26 80
5 02/08/2024 21:21:47 -0.00,-108.46 -0.38,-110.27 206.16 80
6 02/10/2024 21:08:55 0.00,-108.44 0.44,-106.48 223.75 80
7 02/11/2024 09:29:18 0.00,-108.42 0.63,-111.41 339.17 80
8 02/13/2024 09:11:05 -0.01,-108.41 -0.17,-107.61 91.24 80
9 02/13/2024 21:31:37 0.00,-108.42 -0.89,-112.58 473.14 80
10 02/15/2024 21:18:43 0.00,-108.40 -0.10,-108.77 42.42 80
